Home > Weather > Santa Cruz > Past weeks

Flag for USA Weather for the Past 2 Weeks in Santa Cruz, California, USA

Now
62 °F

Sunny.


Feels Like: 62 °F
Forecast: 52 / 72 °F
Wind: 5 mph from North

Location: Watsonville Municipal Airport

Current Time: Apr 29, 2016 at 5:15:43 PM

Latest Report: Apr 29, 2016 at 3:53 PM


Visibility: 10 mi

Pressure: 30.01 "Hg

Humidity: 65%

Dew Point: 50 °F

Location of Santa CruzLocation

Historic Weather in Santa Cruz — Graph

°F

Santa Cruz Temperature Yesterday

Maximum temperature yesterday: 67 °F (at 3:53 PM)
Minimum temperature yesterday: 44 °F (at 3:53 AM)
Average temperature yesterday: 55 °F

High & Low Weather Summary for the Past Weeks

 TemperatureHumidityPressure
High82 °F (Apr 18, 12:53 PM)97% (Apr 21, 1:53 AM)30.21 "Hg (Apr 21, 1:53 AM)
Low42 °F (Apr 15, 5:53 AM)22% (Apr 19, 11:53 AM)29.88 "Hg (Apr 22, 5:53 AM)
Average57 °F70%30.02 "Hg
* Reported Apr 14 2:53 PM — Apr 29 2:53 PM, Santa Cruz, Weather by CustomWeather, © 2016

Note: Actual official high and low records may vary slightly from our data, if they occured in-between our weather recording intervals... More about our weather records

Advertising

Santa Cruz Weather History for the Previous 24 Hours

Scroll right to see more
 ConditionsComfort  
Time TempWeatherWind HumidityBarometerVisibility
2:53 PM
Fri, Apr 29
61 °FSunny.9 mph70%30.03 "Hg10 mi
1:53 PM60 °FPartly sunny.9 mph72%30.05 "Hg10 mi
12:53 PM58 °FOvercast.5 mph72%30.07 "Hg10 mi
11:53 AM56 °FOvercast.3 mph77%30.08 "Hg10 mi
10:53 AM53 °FOvercast.No wind83%30.09 "Hg10 mi
9:53 AM53 °FOvercast.7 mph83%30.08 "Hg10 mi
8:53 AM52 °FOvercast.No wind86%30.07 "Hg10 mi
7:53 AM52 °FOvercast.3 mph86%30.06 "Hg10 mi
6:53 AM51 °FFog.6 mph92%30.04 "Hg5 mi
5:53 AM51 °FLow clouds.5 mph89%30.03 "Hg9 mi
4:53 AM51 °FLow clouds.No wind96%30.03 "Hg7 mi
3:53 AM52 °FFog.No wind93%30.02 "Hg4 mi
2:53 AM52 °FLow clouds.5 mph89%30.02 "Hg7 mi
1:53 AM52 °FLow clouds.No wind89%30.02 "Hg9 mi
1:02 AM51 °FLow clouds.3 mph89%30.02 "Hg10 mi
12:04 AM50 °FPassing clouds.3 mph93%30.01 "Hg9 mi
10:53 PM
Thu, Apr 28
51 °FClear.5 mph89%30.01 "Hg9 mi
9:53 PM52 °FClear.7 mph86%30.00 "Hg10 mi
8:53 PM53 °FSunny.6 mph86%29.98 "Hg10 mi
7:53 PM56 °FSunny.7 mph81%29.95 "Hg10 mi
6:53 PM60 °FSunny.8 mph72%29.94 "Hg10 mi
5:53 PM65 °FSunny.8 mph63%29.92 "Hg10 mi
Weather by CustomWeather, © 2016

See weather overviewHow to use our weather pages